Location: Burbank
(38.7788°N, 114.0429°W)
Time: 05:24:10
(UTC+00:00)

Tiros 1 despin weight - Pass Details

Date: 19 May 2026
Orbit: 554 x 591 km, 48.2° (Epoch: 7 June)

Event Time Altitude Azimuth Distance (km) Brightness Sun altitude
Exits shadow 10:29:30 39° 197° (SSW) 856 ? -18.3°
Maximum altitude 10:30:45 56° 143° (SE) 677 ? -18.1°
Drops below altitude 10° 10:34:54 10° 65° (ENE) 1,856 ? -17.5°
Sets 10:37:11 0° 61° (ENE) 2,748 ? -17.2°
